HAWK-5B

Last updated on Sun Jun 21 2026 00:03:43 GMT+0000 (Coordinated Universal Time)

1 52756U 22057AA 26171.39787853 .00015995 00000+0 27217-3 0 9998 2 52756 97.6617 329.6212 0005480 66.4808 293.7018 15.51491667226844
UTC large
Height (km)
Speed (km/s)
/
Latitude / Longitude
Inclination (degrees)
Orbital Period (minutes)
Azimuth
Elevation
Range (km)
Doppler Factor

Next 0 passes for location: London (51.5072 / 0.1276)

No passes found over London.
HAWK-5B